Regional Weather Roundup
Issued by NWS Northern Indiana

Home | Current Version | Previous Version | Graphics & Text | Print | Product List | Glossary On
Versions: 1 2 3 4 5 6 7 8 9 10 11 12 13 14 15 16 17 18 19 20 21 22 23 24 25 26 27 28 29 30 31 32 33 34 35 36 37 38 39 40 41 42 43 44 45 46 47 48 49 50
000
ASUS43 KIWX 160700
RWRIWX

KIWX WEATHER ROUNDUP
NATIONAL WEATHER SERVICE NORTHERN INDIANA
300 AM EDT WED APR 16 2014

NOTE: "FAIR" INDICATES FEW OR NO CLOUDS BELOW 12,000 FEET WITH NO
SIGNIFICANT WEATHER AND/OR OBSTRUCTIONS TO VISIBILITY.

* THESE STATIONS ARE NOT UNDER NWS QUALITY CONTROL. THEY ALSO MAY NOT
  REPORT WEATHER SUCH AS PRECIPITATION OR FOG.

INZ001>027-160800-
NORTHERN INDIANA

CITY           SKY/WX    TMP DP  RH WIND       PRES   REMARKS
VALPARAISO     CLEAR     24  18  77 CALM      30.25R
SOUTH BEND     CLEAR     28  13  53 SE6       30.26R WCI  22
GOSHEN         CLEAR     26  15  63 SE6       30.26R WCI  19
ANGOLA*        CLEAR     23  18  80 CALM      30.25R
FORT WAYNE     CLEAR     24  17  74 S3        30.28R
PERU/GRISSOM   CLEAR     26  19  76 SE5       30.26R WCI  20

$$
INZ028>050-160800-
CENTRAL INDIANA

CITY           SKY/WX    TMP DP  RH WIND       PRES   REMARKS
LAFAYETTE      CLEAR     27  18  69 CALM      30.27R
KOKOMO*        CLEAR     27  18  69 SE6       30.26S WCI  20
MUNCIE*        CLEAR     27  14  58 SE3       30.27R
INDIANAPOLIS   CLEAR     27  19  72 SE7       30.27R WCI  19

$$
MIZ043>046-050>051-056>058-064>065-071>073-077>080-160800-
SOUTHWEST LOWER MICHIGAN

CITY           SKY/WX    TMP DP  RH WIND       PRES   REMARKS
BATTLE CREEK   CLEAR     23  15  71 CALM      30.25R
BENTON HARBOR  CLEAR     22  16  78 SE3       30.26R
HILLSDALE*     CLEAR     22  11  64 CALM      30.24R
HOLLAND        CLEAR     26  17  68 SE3       30.26R
GRAND RAPIDS   CLEAR     23  16  74 S5        30.26R WCI  17
KALAMAZOO      CLEAR     24  16  71 CALM      30.25R
STURGIS*       CLEAR     23  14  68 CALM      30.25R
THREE RIVERS*  FAIR      25  16  69 CALM      30.26S

$$
OHZ001>008-015>018-024>025-160800-
NORTHWEST OHIO

CITY           SKY/WX    TMP DP  RH WIND       PRES   REMARKS
DEFIANCE       CLEAR     23  16  74 CALM      30.28R
FINDLAY        CLEAR     26  15  63 CALM      30.26R
TOLEDO EXPRESS CLEAR     22  12  65 CALM      30.27R
TOLEDO METCALF CLEAR     26  13  57 CALM      30.28R
LIMA           CLEAR     26  16  65 CALM      30.26R

$$
&&



USA.gov is the U.S. government's official web portal to all federal, state and local government web resources and services.